Weather in Polyarny

Russia / Chukotka Autonomous Okrug     69°09′44″N   178°42′43″E
temp.,
°C
wind,
m/s
gust,
m/s
humid.,
%
clouds,
%
prec.,
mm/h
press.,
hPa
HPBL,
m
17 august, wed
wed1700:00−2ese33915 0.0 102053
03:00−2se23905 0.0 101935
06:000ese23775 0.0 1018160
09:00+4ese33605 0.0 1018351
12:00+6e44561 0.0 1017459
15:00+6e44591 0.0 1015378
18:00+5e35650 0.0 1015273
21:000ese23860 0.0 101639
18 august, thu
thu1800:00−1ese23910 0.0 101634
03:00−1ese22925 0.0 101623
06:00+1ese238417 0.0 1016145
09:00+3e348063 0.0 1016434
12:00+3ese568584 0.0 1016520
15:00+3e677364 0.0 1016678
18:00+2ese677524 0.0 1017568
21:00−1ese349215 0.0 101866
19 august, fri
fri1900:00−2ese349117 0.0 101855
03:00−2ese339078 0.0 101845
06:00+1ese368130 0.0 1019365
09:00+3ese567146 0.0 1019602
12:00+4ese666852 0.0 1019611
15:00+4ese676938 0.0 1019571
18:00+3ese687616 0.0 1019471
21:000ese379313 0.0 1019140
20 august, sat
sat2000:00−1ese349519 0.0 101971
03:00−1ese349621 0.0 101964
06:00+1ese359132 0.0 1019183
09:00+5ese468145 0.0 1019390
12:00+6ese567627 0.0 1018431
15:00+6ese577828 0.0 1018379
18:00+4ese4689100 0.0 1018322
21:00+3e3498100 0.0 1019162
21 august, sun
sun2100:00+3ese2498100 0.0 1019165
03:00+2e2498100 0.0 1020152
06:00+2ese3597100 0.0 1021186
09:00+4ese4693100 0.0 1022319
12:00+5ese578562 0.0 1023379
15:00+5ese587813 0.0 1023386
18:00+4ese48750 0.0 1023347
21:00+1ese35958 0.0 102494